Flag for Russia Weather past 2 weeks in Astrakhan, Russia

Now
18 °F

Sunny.


Feels Like: 1 °F
Forecast: 10 / 23 °F
Wind: 20 mph from Southeast

Location: Astrakhan

Current Time: Jan 25, 2015 at 5:45:25 PM

Latest Report: Jan 25, 2015 at 5:00 PM


Visibility: 10 mi

Pressure: 30.63 "Hg

Humidity: 62%

Dew point: 7 °F

Location of AstrakhanLocation

Historic Weather in Astrakhan — Graph

°F

Astrakhan temperature yesterday

Maximum temperature yesterday: 27 °F (at 1:00 PM)
Minimum temperature yesterday: 5 °F (at 4:30 AM)
Average temperature yesterday: 15 °F

Past Weeks' High & Low Weather Summary

 TemperatureHumidityPressure
High45 °F (Jan 12, 1:00 PM)100% (Jan 16, 5:30 PM)30.74 "Hg (Jan 16, 5:30 PM)
Low5 °F (Jan 24, 4:30 AM)42% (Jan 25, 12:30 PM)29.74 "Hg (Jan 12, 4:00 PM)
Average27 °F84%30.29 "Hg
* Reported Jan 10 4:00 PM — Jan 25 4:30 PM, Astrakhan, Weather by CustomWeather, © 2014

Note: Actual official high and low records may vary slightly from our data, if they occured in-between our weather recording intervals... More about our weather records

Advertising

Astrakhan weather history for previous 24 hours

 ConditionsComfort  
Time TempWeatherWind HumidityBarometerVisibility
4:30 PM
Jan 25
19 °FSunny.22 mph58%30.63 "Hg10 mi
4:00 PM21 °FSunny.22 mph54%30.63 "Hg10 mi
3:30 PM21 °FSunny.22 mph54%30.63 "Hg10 mi
3:00 PM23 °FSunny.24 mph50%30.63 "Hg10 mi
2:30 PM25 °FSunny.22 mph46%30.63 "Hg10 mi
2:00 PM25 °FSunny.24 mph42%30.63 "Hg10 mi
1:30 PM25 °FSunny.24 mph42%30.63 "Hg10 mi
1:00 PM25 °FSunny.24 mph42%30.63 "Hg10 mi
12:30 PM25 °FSunny.22 mph42%30.66 "Hg10 mi
12:00 PM23 °FSunny.24 mph50%30.66 "Hg10 mi
11:30 AM23 °FSunny.24 mph46%30.66 "Hg10 mi
11:00 AM21 °FSunny.24 mph54%30.69 "Hg10 mi
10:30 AM21 °FSunny.22 mph54%30.69 "Hg10 mi
10:00 AM19 °FSunny.22 mph58%30.69 "Hg10 mi
9:30 AM18 °FSunny.17 mph68%30.66 "Hg10 mi
9:00 AM14 °FSunny.17 mph73%30.66 "Hg10 mi
8:30 AM12 °FSunny.17 mph79%30.66 "Hg10 mi
8:00 AM12 °FClear.20 mph79%30.66 "Hg10 mi
7:30 AM10 °FClear.17 mph85%30.66 "Hg10 mi
7:00 AM10 °FClear.15 mph85%30.66 "Hg10 mi
6:30 AM12 °FClear.20 mph79%30.66 "Hg10 mi
5:30 AM12 °FClear.17 mph79%30.66 "Hg10 mi
5:00 AM12 °FClear.15 mph79%30.63 "Hg10 mi
4:30 AM12 °FClear.15 mph79%30.63 "Hg10 mi
4:00 AM12 °FClear.15 mph79%30.66 "Hg10 mi
3:30 AM12 °FClear.15 mph85%30.66 "Hg10 mi
3:00 AM12 °FClear.15 mph85%30.66 "Hg10 mi
2:30 AM12 °FClear.15 mph85%30.66 "Hg10 mi
2:00 AM12 °FClear.15 mph85%30.66 "Hg10 mi
1:30 AM12 °FClear.17 mph85%30.66 "Hg10 mi
1:00 AM14 °FClear.20 mph79%30.66 "Hg10 mi
12:30 AM14 °FClear.17 mph79%30.66 "Hg10 mi
12:00 AM14 °FClear.17 mph79%30.66 "Hg10 mi
11:30 PM
Jan 24
14 °FClear.17 mph79%30.66 "Hg10 mi
11:00 PM14 °FClear.15 mph79%30.69 "Hg10 mi
10:30 PM14 °FClear.15 mph79%30.69 "Hg10 mi
10:00 PM14 °FClear.15 mph79%30.69 "Hg10 mi
9:30 PM14 °FClear.15 mph79%30.69 "Hg10 mi
9:00 PM14 °FClear.17 mph85%30.69 "Hg10 mi
8:30 PM14 °FClear.17 mph85%30.69 "Hg10 mi
8:00 PM14 °FClear.17 mph85%30.69 "Hg10 mi
7:30 PM14 °FClear.17 mph85%30.69 "Hg10 mi
7:00 PM16 °FClear.20 mph79%30.69 "Hg10 mi
6:30 PM16 °FClear.20 mph79%30.69 "Hg10 mi
6:00 PM18 °FClear.17 mph73%30.69 "Hg10 mi
5:30 PM18 °FSunny.17 mph73%30.69 "Hg10 mi
5:00 PM19 °FSunny.20 mph73%30.69 "Hg10 mi
Weather by CustomWeather, © 2014

See weather overviewHow to use our weather pages